Location: St. Louis
(38.6270°N, 90.1994°W)
Time: 08:33:41
(UTC-06:00)

Altair - Pass Details

Date: 01 December 2021
Orbit: 1501 x 1683 km, 47.2° (Epoch: 17 January)

Event Time Altitude Azimuth Distance (km) Brightness Sun altitude
Rises 01:12:13 0° 286° (WNW) 4,636 - -65.7°
Reaches altitude 10° 01:17:24 10° 262° (W) 3,663 - -64.8°
Maximum altitude 01:21:13 13° 237° (WSW) 3,421 - -64.2°
Drops below altitude 10° 01:25:04 10° 212° (SSW) 3,693 - -63.6°
Sets 01:30:25 0° 187° (S) 4,707 - -62.7°
